[[{"header":{"parameterUnit":"m.s-1","parameterCategory":1,"la1":30.2991,"la2":30.254,"lo1":-89.0895,"lo2":-89.0444,"dy":0.0017,"dx":0.0017,"nx":28,"ny":28,"refTime":"2025-12-12T03:00:00:Z","depth":0,"parameterNumber":2,"parameterNumberName":"U-component_of_WINDS"},"data":[0,0,0,0,0,0,0,0,0,0,0,0,0,0,0,0,0,0,0,0,0,0,0,0,0,0,0,0,0,0,0,0,0,0,0,0,0,0,0,0,0,0,0,0,0,0,0,0,0,0,0,0,0,0,0,0,0,0,1.0468,1.0469,0,1.0541,1.0542,1.0543,1.0583,1.0583,1.0583,1.0584,1.0656,1.0657,1.0659,0,0,0,0,0,0,0,0,0,0,0,0,0,1.036,1.0362,1.0468,1.0469,1.047,1.0541,1.0542,1.0543,1.0583,1.0583,1.0584,1.0584,1.0655,1.0657,1.0659,0,0,0,0,0,0,0,0,0,0,0,0,0,1.0417,1.0362,1.0468,1.0499,1.0502,1.0541,1.0542,1.0544,1.0583,1.0583,1.0584,1.0584,1.0654,1.0657,1.066,1.0673,0,0,1.0668,1.0669,0,0,0,0,0,0,0,0,1.0414,1.0421,1.0493,1.0497,1.0501,1.0554,1.0531,1.0587,1.0583,1.0552,1.0584,1.0584,1.0621,1.0627,1.064,1.0676,1.0679,1.0668,1.067,1.0671,1.0672,0,0,0,0,0,0,0,1.041,1.0418,1.0497,1.0494,1.0499,1.0508,1.0516,1.0541,1.0585,1.0555,1.0558,1.0566,1.0623,1.0637,1.0642,1.0681,1.0668,1.0671,1.0672,1.0673,1.0729,1.0729,0,0,0,0,0,0,1.0401,1.0415,1.0495,1.0499,1.0457,1.0509,1.0519,1.0536,1.0585,1.0592,1.0566,1.0568,1.0633,1.0639,1.0645,1.0663,1.0671,1.0674,1.0675,1.073,1.0729,1.0729,0,0,0,0,0,0,1.0399,1.0408,1.0492,1.0458,1.0469,1.0511,1.053,1.0538,1.0552,1.0593,1.0601,1.0573,1.0633,1.0641,1.0665,1.0666,1.0675,1.0677,1.073,1.073,1.0729,1.0699,0,0,0,0,0,0,1.0396,1.0407,1.0414,1.0458,1.0471,1.0513,1.0531,1.0539,1.0557,1.056,1.0601,1.0608,1.0634,1.0661,1.0668,1.0669,1.0679,1.073,1.073,1.0729,1.07,1.0697,1.0695,0,0,0,0,0,1.0392,1.0402,1.0414,1.0423,1.048,1.0513,1.052,1.055,1.0556,1.0563,1.0589,1.0607,1.0664,1.0663,1.0672,1.0674,1.073,1.073,1.0729,1.0701,1.0698,1.0695,0,0,0,0,0,0,1.0356,1.0408,1.0422,1.0447,1.0475,1.0519,1.0528,1.0546,1.0572,1.0574,1.0608,1.0617,1.0638,1.0659,1.0656,1.0688,1.0699,1.07,1.0674,1.0672,1.067,1.0664,1.0682,0,0,0,0,0,1.0351,1.0374,1.0418,1.0436,1.0449,1.0486,1.0501,1.0522,1.0552,1.0564,1.0592,1.062,1.0644,1.0659,1.0684,1.0703,1.0712,1.0708,1.0706,1.0704,1.0704,1.0714,1.0713,1.0728,1.0728,1.0728,0,0,1.0341,1.0373,1.0385,1.043,1.0454,1.0475,1.0496,1.0518,1.0534,1.0567,1.0592,1.0613,1.0646,1.0668,1.0679,1.0685,1.0702,1.0703,1.0701,1.0703,1.0714,1.0712,1.0711,1.0728,1.0728,1.0728,0,0,1.0335,1.0361,1.0378,1.0402,1.0438,1.0462,1.0466,1.0507,1.0523,1.0549,1.0573,1.0592,1.0633,1.0655,1.0672,1.0671,1.0688,1.0678,1.0666,1.0676,1.0674,1.0673,1.0672,1.0671,1.0679,1.0678,1.0678,0,1.0317,1.0353,1.0384,1.0405,1.0423,1.0454,1.0471,1.0492,1.0534,1.0545,1.0552,1.0603,1.0628,1.0654,1.0654,1.0666,1.0671,1.0674,1.0672,1.0672,1.0671,1.067,1.067,1.0677,1.0677,1.0677,1.0677,0,1.0329,1.0353,1.0362,1.0402,1.0421,1.044,1.0473,1.0488,1.0506,1.0529,1.0554,1.0584,1.0615,1.0622,1.064,1.0651,1.0654,1.0666,1.0677,1.0668,1.0667,1.0667,1.0675,1.0675,1.0676,1.0676,0,0,1.0303,1.036,1.0363,1.038,1.0422,1.044,1.0459,1.049,1.0501,1.0529,1.0545,1.0578,1.0589,1.0608,1.0628,1.0636,1.0632,1.0648,1.0649,1.0643,1.0644,1.0634,1.0634,1.0644,1.0644,1.0644,1.0641,0,1.0302,1.0339,1.0367,1.0393,1.0414,1.0442,1.0458,1.0485,1.0506,1.0526,1.0549,1.0572,1.0586,1.0597,1.0606,1.0631,1.0633,1.0632,1.0658,1.0658,1.0648,1.0634,1.0624,1.062,1.0641,1.0641,1.0641,0,1.0306,1.0332,1.036,1.0398,1.0408,1.0422,1.0451,1.047,1.05,1.0515,1.0535,1.0556,1.0575,1.0585,1.0611,1.061,1.0622,1.0635,1.0636,1.0639,1.0649,1.0636,1.0619,1.0618,1.0642,1.0642,1.0642,0,1.0283,1.0325,1.0347,1.0362,1.0407,1.0416,1.0434,1.0464,1.048,1.0505,1.0515,1.0542,1.0556,1.0576,1.0603,1.0607,1.0626,1.0638,1.0638,1.0637,1.0641,1.064,1.0625,1.0649,1.0649,1.0649,1.0649,0,1.0279,1.0294,1.0337,1.0351,1.0368,1.04,1.0416,1.0437,1.0463,1.048,1.0505,1.052,1.0555,1.0574,1.0595,1.0613,1.0619,1.0631,1.0636,1.0628,1.0627,1.0637,1.0637,1.0649,1.0649,1.0649,1.0649,0,1.0257,1.0286,1.0312,1.0352,1.0362,1.0373,1.0406,1.0419,1.0441,1.0462,1.0469,1.0503,1.0526,1.0555,1.0587,1.0601,1.0617,1.0625,1.0607,1.061,1.0608,1.0607,1.0598,1.0598,1.0622,1.0622,1.0622,0,1.0252,1.0264,1.0305,1.0319,1.0337,1.0358,1.0374,1.0405,1.042,1.0454,1.0462,1.0487,1.0509,1.0544,1.0571,1.0595,1.0604,1.0599,1.0608,1.0599,1.0603,1.0602,1.0602,1.0597,1.0597,1.0596,1.0596,0,1.024,1.0253,1.0276,1.0303,1.0322,1.0345,1.0369,1.0378,1.0413,1.0429,1.0453,1.0469,1.0502,1.0526,1.0553,1.0571,1.0589,1.0593,1.0594,1.0586,1.0574,1.058,1.06,1.0593,1.0593,1.0594,1.0594,1.0594,1.0226,1.0238,1.0268,1.0292,1.0313,1.0334,1.0348,1.0371,1.0392,1.0421,1.0438,1.046,1.0488,1.0526,1.0543,1.0561,1.0568,1.0569,1.057,1.057,1.0567,1.0572,1.0566,1.0566,1.0566,1.0567,1.0567,0,1.0214,1.0235,1.0256,1.0289,1.0307,1.0322,1.0349,1.0363,1.0383,1.0407,1.0428,1.0454,1.0477,1.0505,1.0529,1.0538,1.0546,1.0543,1.0543,1.0546,1.056,1.0556,1.0536,1.0536,1.0536,1.0536,1.0536,1.0536,1.0211,1.0231,1.0248,1.0278,1.0298,1.0321,1.0335,1.0354,1.0373,1.0402,1.0421,1.0439,1.0465,1.0491,1.0512,1.0519,1.0527,1.0521,1.053,1.0543,1.0545,1.0548,1.0545,1.0522,1.0522,1.0515,1.0515,1.0515]},{"header":{"parameterUnit":"m.s-1","parameterCategory":1,"la1":30.2991,"la2":30.254,"lo1":-89.0895,"lo2":-89.0444,"dy":0.0017,"dx":0.0017,"nx":28,"ny":28,"refTime":"2025-12-12T03:00:00:Z","depth":0,"parameterNumber":3,"parameterNumberName":"V-component_of_WINDS"},"data":[0,0,0,0,0,0,0,0,0,0,0,0,0,0,0,0,0,0,0,0,0,0,0,0,0,0,0,0,0,0,0,0,0,0,0,0,0,0,0,0,0,0,0,0,0,0,0,0,0,0,0,0,0,0,0,0,0,0,1.8072,1.8072,0,1.8032,1.8032,1.8031,1.7988,1.7988,1.7987,1.7987,1.7945,1.7945,1.7944,0,0,0,0,0,0,0,0,0,0,0,0,0,1.811,1.8109,1.8072,1.8072,1.8071,1.8032,1.8032,1.8031,1.7989,1.7988,1.7987,1.7986,1.7945,1.7945,1.7944,0,0,0,0,0,0,0,0,0,0,0,0,0,1.8084,1.8109,1.8072,1.8045,1.8042,1.8032,1.8032,1.8031,1.7989,1.7988,1.7987,1.7986,1.7946,1.7945,1.7944,1.7957,0,0,1.7942,1.7941,0,0,0,0,0,0,0,0,1.8085,1.8083,1.805,1.8047,1.8044,1.8014,1.803,1.8006,1.7989,1.8009,1.7987,1.7986,1.7969,1.7966,1.7961,1.7955,1.7954,1.7941,1.7941,1.7941,1.794,0,0,0,0,0,0,0,1.8087,1.8084,1.8056,1.8049,1.8046,1.8034,1.803,1.8025,1.7995,1.8007,1.8004,1.8,1.7967,1.7962,1.7959,1.7953,1.7942,1.7941,1.794,1.794,1.7955,1.7956,0,0,0,0,0,0,1.8093,1.8086,1.8057,1.8055,1.8063,1.8035,1.8029,1.8025,1.7994,1.7989,1.8001,1.7998,1.7963,1.796,1.7958,1.797,1.7941,1.794,1.7939,1.7954,1.7955,1.7956,0,0,0,0,0,0,1.8094,1.8091,1.8059,1.8069,1.8065,1.8035,1.803,1.8024,1.8019,1.799,1.7984,1.8001,1.7963,1.7959,1.7957,1.7968,1.794,1.7939,1.7953,1.7954,1.7956,1.7996,0,0,0,0,0,0,1.8095,1.8092,1.8097,1.807,1.8064,1.806,1.8031,1.8024,1.8018,1.8014,1.7988,1.7983,1.7962,1.7959,1.7957,1.7967,1.7938,1.7952,1.7954,1.7955,1.7994,1.7999,1.8003,0,0,0,0,0,1.8097,1.811,1.8097,1.8094,1.807,1.8061,1.8057,1.8033,1.8019,1.8023,1.8004,1.7984,1.7968,1.7959,1.7956,1.7966,1.7951,1.7953,1.7955,1.7992,1.7998,1.8003,0,0,0,0,0,0,1.8139,1.8106,1.8092,1.8097,1.8082,1.8054,1.8059,1.804,1.8029,1.8026,1.7995,1.799,1.7992,1.7979,1.797,1.7977,1.7956,1.7958,1.7985,1.7991,1.7995,1.7998,1.7938,0,0,0,0,0,1.8149,1.8145,1.8116,1.8123,1.8116,1.8089,1.8084,1.8066,1.805,1.8043,1.8024,1.8008,1.8,1.7994,1.7985,1.7992,1.7985,1.7997,1.8002,1.8006,1.8007,1.8009,1.8013,1.7963,1.7963,1.7963,0,0,1.8169,1.8151,1.815,1.8131,1.8117,1.8113,1.8084,1.8081,1.8077,1.8042,1.804,1.8025,1.8006,1.8008,1.8008,1.7997,1.802,1.8008,1.8012,1.8011,1.8011,1.8016,1.802,1.7964,1.7964,1.7964,0,0,1.8204,1.819,1.8194,1.8181,1.816,1.8142,1.8143,1.8117,1.8106,1.8103,1.8077,1.8072,1.8058,1.8044,1.8036,1.8064,1.8045,1.8062,1.8086,1.8088,1.8092,1.8095,1.8105,1.8108,1.8064,1.8064,1.8064,0,1.8232,1.8224,1.8198,1.8196,1.8188,1.8157,1.816,1.8148,1.8126,1.8121,1.8109,1.809,1.8074,1.8073,1.808,1.8074,1.8073,1.8065,1.8094,1.8097,1.8099,1.8108,1.8112,1.8066,1.8066,1.8066,1.8065,0,1.8259,1.8254,1.826,1.8239,1.8231,1.8232,1.8205,1.8201,1.8183,1.8166,1.8162,1.8143,1.8128,1.8127,1.811,1.8122,1.8116,1.8099,1.8078,1.8107,1.8114,1.8117,1.8069,1.8068,1.8068,1.8067,0,0,1.8319,1.8283,1.8286,1.8275,1.8251,1.8246,1.8245,1.8231,1.8227,1.8212,1.821,1.8198,1.8182,1.8173,1.8154,1.8156,1.8178,1.8138,1.8137,1.8146,1.8189,1.8202,1.8206,1.8165,1.8165,1.8166,1.8191,0,1.8349,1.8345,1.8321,1.8324,1.8319,1.8288,1.8287,1.8271,1.8255,1.8247,1.8229,1.8221,1.8201,1.8195,1.8195,1.8175,1.8186,1.8173,1.8161,1.8161,1.8167,1.821,1.8223,1.8247,1.8193,1.8194,1.8194,0,1.8383,1.8371,1.8373,1.8347,1.8344,1.8344,1.8328,1.8322,1.8303,1.829,1.8279,1.8258,1.8254,1.8234,1.8228,1.822,1.8213,1.8203,1.8203,1.82,1.8179,1.8208,1.8255,1.8258,1.8199,1.8198,1.8198,0,1.8426,1.841,1.8409,1.8401,1.8371,1.8371,1.8359,1.8339,1.8331,1.8318,1.8312,1.8298,1.829,1.828,1.8255,1.8243,1.8251,1.8229,1.8239,1.824,1.8242,1.8242,1.8288,1.8239,1.8239,1.8239,1.8239,0,1.8461,1.8464,1.8427,1.8427,1.8428,1.84,1.8402,1.8387,1.8369,1.8364,1.8337,1.8333,1.8301,1.8293,1.8274,1.827,1.8267,1.8257,1.8251,1.8259,1.826,1.8254,1.8251,1.824,1.824,1.824,1.824,0,1.8509,1.8485,1.8482,1.8454,1.8446,1.8449,1.8424,1.8422,1.8404,1.8398,1.8395,1.8366,1.8355,1.8329,1.8312,1.8298,1.83,1.8291,1.8306,1.8303,1.8314,1.8313,1.8357,1.8361,1.8311,1.8311,1.8312,0,1.8533,1.8534,1.8506,1.8501,1.8489,1.8482,1.8474,1.8446,1.8439,1.8417,1.8417,1.8404,1.8392,1.8376,1.8353,1.8339,1.8328,1.8345,1.8326,1.8333,1.8327,1.8327,1.8327,1.8349,1.8349,1.835,1.835,0,1.8577,1.8565,1.8555,1.8541,1.8532,1.852,1.8506,1.8503,1.8471,1.8464,1.8453,1.8444,1.8425,1.8412,1.8395,1.8381,1.836,1.8356,1.8358,1.8365,1.8374,1.8368,1.8317,1.8356,1.8355,1.8355,1.8354,1.8354,1.8613,1.8612,1.8592,1.8582,1.8568,1.8555,1.8552,1.8533,1.8523,1.8506,1.849,1.848,1.8459,1.8433,1.8421,1.8412,1.8401,1.8404,1.8404,1.8405,1.8408,1.8376,1.8409,1.8408,1.8408,1.8408,1.8408,0,1.8655,1.8641,1.8631,1.8612,1.8604,1.8586,1.8569,1.8563,1.8554,1.8537,1.8526,1.8512,1.8499,1.8475,1.846,1.8457,1.8447,1.8454,1.8453,1.845,1.8419,1.8419,1.8462,1.8462,1.8462,1.8462,1.8462,1.8462,1.8676,1.8674,1.8659,1.8649,1.8634,1.8624,1.8616,1.8604,1.859,1.8576,1.8565,1.855,1.8529,1.8512,1.8499,1.8492,1.8487,1.8497,1.8487,1.8458,1.8453,1.8448,1.8447,1.8496,1.8496,1.8519,1.8519,1.8519]}]]